Regional Weather Roundup
Issued by NWS

Home | Current Version | Previous Version | Text Only | Print | Product List | Glossary Off
Versions: 1 2 3 4 5 6 7 8 9 10 11 12 13 14 15 16 17 18 19 20 21 22 23 24 25 26 27 28 29 30 31 32 33 34 35 36 37 38 39 40 41 42 43 44 45 46 47 48 49 50

000
ASUS45 KBOU 230607
RWRCO

WEATHER ROUNDUP FOR COLORADO
NATIONAL WEATHER SERVICE DENVER/BOULDER CO
1200 AM MDT TUE AUG 23 2016

NOTE: "FAIR" INDICATES FEW OR NO CLOUDS BELOW 12000 FEET WITH NO
SIGNIFICANT WEATHER AND/OR OBSTRUCTIONS TO VISIBILITY.

COZ001>005-013-030-031-230700-
...NORTHWEST COLORADO...

CITY           SKY/WX    TMP DP  RH WIND       PRES   REMARKS
CRAIG          FAIR      52  40  63 CALM      30.14R
HAYDEN         FAIR      55  36  47 SE6       30.15S
MEEKER         FAIR      54  42  64 NE5       30.17S
MOUNT WERNER   NOT AVBL
STEAMBOAT SPGS FAIR      54  37  53 CALM      30.18S
WALDEN         FAIR      41  36  81 SE8       30.25S
$$

COZ006>008-011-230700-
...WEST CENTRAL VALLEYS...

CITY           SKY/WX    TMP DP  RH WIND       PRES   REMARKS
GRAND JUNCTION FAIR      66  51  58 E14       30.09F
MONTROSE       FAIR      59  44  57 S5        30.19R
EAGLE          FAIR      55  45  67 SE7       30.21R
RIFLE          FAIR      60  48  64 S6        30.15R
DELTA          NOT AVBL
NUCLA          FAIR      59  52  77 CALM      30.23F
$$

COZ017>023-064>068-230700-
...SOUTHWEST COLORADO...

CITY           SKY/WX    TMP DP  RH WIND       PRES   REMARKS
DURANGO        CLOUDY    57  51  80 CALM      30.23S
CORTEZ         CLOUDY    62  51  67 VRB3      30.18R
PAGOSA SPRINGS FAIR      50  50  98 CALM      30.31S
TELLURIDE      CLOUDY    49  46  89 CALM      30.39R
WOLF CREEK PAS CLOUDY    37  37 100 SW13      30.55R
$$

COZ009-010-012-014-032>034-037-058>063-230700-
...CENTRAL COLORADO...

CITY           SKY/WX    TMP DP  RH WIND       PRES   REMARKS
ASPEN          FAIR      52  42  69 CALM      30.25S
BUENA VISTA    FAIR      53  38  56 NW6       30.25F
COPPER MTN     FAIR      45  32  61 W6        30.51F
BERTHOUD PASS  FAIR      37  27  65 N16G23    30.52F
COTTONWOOD PAS FAIR      52  36  54 W10       30.37S
GUNNISON       FAIR      50  46  87 NW3       30.32S
KREMMLING      FAIR      50  37  62 CALM      30.24R
LEADVILLE      FAIR      38  34  85 E6        30.37S
MONARCH PASS   FOG       37  36  93 SW13      30.60S VSB 1/2
SALIDA         FAIR      57  43  57 SW8       30.30S
SUNLIGHT       FAIR      45  37  76 NE3       30.47S
WILKERSON PASS NOT AVBL
$$

COZ069>075-230700-
...SAN LUIS VALLEY/SANGRE DE CRISTO MOUNTAINS...

CITY           SKY/WX    TMP DP  RH WIND       PRES   REMARKS
ALAMOSA        CLOUDY    55  44  66 CALM      30.26S
LA VETA PASS   MOCLDY    45  41  87 S12G21    30.35F
SAGUACHE       FAIR      52  43  71 NW12      30.28S
$$

COZ035-036-038>040-230700-
...NORTHERN COLORADO FRONT RANGE...

CITY           SKY/WX    TMP DP  RH WIND       PRES   REMARKS
DENVER INTL AP FAIR      68  41  37 SW13      29.97F
DMNS CITY PARK   N/A     70  39  32 SE8       29.97F
AURORA         PTCLDY    63  42  46 S10       30.00F
FRONT RANGE AP NOT AVBL
ERIE MUNI ARPT FAIR      62  37  40 CALM      29.95S
BOULDER MUN AP FAIR      73  34  23 SW6       29.96S
CENTENNIAL     FAIR      66  39  37 SW10      30.02F
BROOMFIELD     FAIR      68  34  28 W8        29.99S
FORT COLLINS   FAIR      61  43  51 CALM      29.93F
LONGMONT       FAIR      61  43  51 CALM      29.96S
$$

COZ041-046-047-076>085-087-088-230700-
...PIKES PEAK/PALMER DIVIDE AND SOUTHERN FOOTHILLS...

CITY           SKY/WX    TMP DP  RH WIND       PRES   REMARKS
COLO. SPRINGS  FAIR      66  40  38 NW9       30.05F
A. F. ACADEMY  FAIR      66  38  34 N8        30.06F
SCHRIEVER AFB  NOT AVBL
ELLICOTT       NOT AVBL
FALCON         FAIR      63  37  37 NW13      30.10F
FORT CARSON    FAIR      63  41  44 NW3       30.01F
LIMON          FAIR      60  39  45 NW5       29.97F
MONUMENT HILL  FAIR      54  37  54 W9        30.12F
TRINIDAD       FAIR      66  42  41 SW18G25   30.04F
$$

COZ042>045-048>051-090-091-230700-
...NORTHEAST COLORADO...

CITY           SKY/WX    TMP DP  RH WIND       PRES   REMARKS
GREELEY ARPT   FAIR      57  48  72 NW6       29.92F
AKRON          FAIR      63  53  70 S8        29.91F
BURLINGTON     FAIR      71  55  56 S20       29.89F
WRAY           NOT AVBL
STERLING       FAIR      64  55  72 S8        29.86S
HOLYOKE        FAIR      72  61  68 S12       29.87F
FORT MORGAN    FAIR      69  37  30 NW13      29.90F
$$

COZ086-089-092>099-230700-
...SOUTHEAST COLORADO...

CITY           SKY/WX    TMP DP  RH WIND       PRES   REMARKS
PUEBLO         FAIR      73  42  32 W13       29.95S
LA JUNTA       FAIR      72  46  39 W17       29.90F
LAMAR          FAIR      74  55  51 S20G26    29.86F
SPRINGFIELD      N/A     68  57  68 S17       29.99S
$$



USA.gov is the U.S. government's official web portal to all federal, state and local government web resources and services.